Weather History for Bar Harbor, ME

Change the Weather History Date:

Monday, February 10, 2014

  Actual Average Record
Temperature  
Mean Temperature 19 °F -  
Max Temperature 28 °F 30 °F 49 °F (1949)
Min Temperature 10 °F 12 °F -5 °F (1951)
Degree Days  
Heating Degree Days 46    
Moisture  
Dew Point 12 °F    
Average Humidity 75    
Maximum Humidity 100    
Minimum Humidity 47    
Precipitation  
Precipitation 0.00 in - - ()
Sea Level Pressure  
Sea Level Pressure 29.99 in    
Wind  
Wind Speed 5 mph (NNW)    
Max Wind Speed 12 mph    
Max Gust Speed 18 mph    
Visibility 8 miles    
Events      
Averages and records for this station are not official NWS values.
T = Trace of Precipitation, MM = Missing Value Source: NWS Daily Summary

Daily Weather History Graph

Daily Weather History Graph

Search for Another Location

Airport:

Trip Planner

Search our weather history database for the weather conditions in past years. The results will help you decide how hot, cold, wet, or windy it might be!

Date:

Astronomy

Feb. 10, 2014 Rise Set
Actual Time 6:40 AM EST 4:55 PM EST
Civil Twilight 6:10 AM EST 5:25 PM EST
Nautical Twilight 5:36 AM EST 5:59 PM EST
Astronomical Twilight 5:02 AM EST 6:33 PM EST
Moon 1:17 PM EST (2/10) 3:35 AM EST (2/10)
Length of Visible Light 11h 15m
Length of Day
10h 14m
Waxing Gibbous, 84% of the Moon is Illuminated
Feb 10
Waxing Gibbous
Feb 14
Full
Feb 22
Last Quarter
Mar 1
New
Mar 8
First Quarter

Hourly Weather History & Observations

Time (EST) Temp. Windchill Dew Point Humidity Pressure Visibility Wind Dir Wind Speed Gust Speed Precip Events Conditions
12:15 AM 19.4 °F - 15.8 °F 86% 29.99 in 3.0 mi Calm Calm - N/A   Overcast
12:35 AM 19.4 °F - 15.8 °F 86% 29.98 in 3.0 mi Calm Calm - N/A   Overcast
12:55 AM 19.4 °F 14.3 °F 15.8 °F 86% 29.97 in 2.5 mi North 3.5 mph - N/A   Overcast
1:15 AM 19.4 °F 14.3 °F 15.8 °F 86% 29.97 in 3.0 mi North 3.5 mph - N/A   Overcast
1:35 AM 17.6 °F 12.3 °F 15.8 °F 93% 29.96 in 3.0 mi North 3.5 mph - N/A   Overcast
1:55 AM 17.6 °F 12.3 °F 15.8 °F 93% 29.96 in 4.0 mi North 3.5 mph - N/A   Overcast
2:15 AM 17.6 °F 10.7 °F 15.8 °F 93% 29.95 in 5.0 mi North 4.6 mph - N/A   Overcast
2:35 AM 17.6 °F 10.7 °F 17.6 °F 100% 29.94 in 4.0 mi NNE 4.6 mph - N/A   Overcast
2:55 AM 17.6 °F 10.7 °F 17.6 °F 100% 29.94 in 3.0 mi NNE 4.6 mph - N/A   Overcast
3:15 AM 17.6 °F 10.7 °F 17.6 °F 100% 29.93 in 3.0 mi NNE 4.6 mph - N/A   Overcast
3:35 AM 17.6 °F 9.3 °F 17.6 °F 100% 29.93 in 5.0 mi NNE 5.8 mph - N/A   Overcast
3:55 AM 17.6 °F 9.3 °F 17.6 °F 100% 29.92 in 3.0 mi NNE 5.8 mph - N/A   Overcast
4:15 AM 17.6 °F 9.3 °F 17.6 °F 100% 29.92 in 5.0 mi NE 5.8 mph - N/A   Overcast
4:35 AM 17.6 °F 9.3 °F 15.8 °F 93% 29.92 in 3.0 mi NE 5.8 mph - N/A   Overcast
4:55 AM 17.6 °F 12.3 °F 15.8 °F 93% 29.91 in 2.5 mi NE 3.5 mph - N/A   Overcast
5:15 AM 17.6 °F 10.7 °F 15.8 °F 93% 29.91 in 4.0 mi North 4.6 mph - N/A   Overcast
5:35 AM 17.6 °F 10.7 °F 15.8 °F 93% 29.91 in 2.5 mi NNW 4.6 mph - N/A   Overcast
5:55 AM 17.6 °F 9.3 °F 15.8 °F 93% 29.91 in 5.0 mi North 5.8 mph - N/A   Overcast
6:15 AM 17.6 °F 9.3 °F 15.8 °F 93% 29.91 in 3.0 mi North 5.8 mph - N/A   Overcast
6:35 AM 17.6 °F 10.7 °F 15.8 °F 93% 29.92 in 3.0 mi North 4.6 mph - N/A   Overcast
6:55 AM 15.8 °F 6.1 °F 15.8 °F 100% 29.92 in 2.0 mi North 6.9 mph - N/A   Overcast
7:15 AM 15.8 °F 7.2 °F 14.0 °F 93% 29.92 in 5.0 mi North 5.8 mph - N/A   Overcast
7:35 AM 15.8 °F 6.1 °F 14.0 °F 93% 29.93 in 8.0 mi North 6.9 mph - N/A   Mostly Cloudy
7:55 AM 15.8 °F 5.1 °F 15.8 °F 100% 29.93 in 6.0 mi North 8.1 mph - N/A   Mostly Cloudy
8:15 AM 17.6 °F 7.3 °F 15.8 °F 93% 29.94 in 4.0 mi North 8.1 mph - N/A   Overcast
8:35 AM 17.6 °F 7.3 °F 15.8 °F 93% 29.94 in 5.0 mi North 8.1 mph - N/A   Mostly Cloudy
8:55 AM 19.4 °F 9.5 °F 15.8 °F 86% 29.94 in 10.0 mi North 8.1 mph - N/A   Mostly Cloudy
9:15 AM 19.4 °F 9.5 °F 15.8 °F 86% 29.94 in 10.0 mi North 8.1 mph - N/A   Scattered Clouds
9:35 AM 21.2 °F 10.9 °F 15.8 °F 80% 29.95 in 10.0 mi North 9.2 mph - N/A   Partly Cloudy
9:55 AM 23.0 °F 12.4 °F 15.8 °F 74% 29.94 in 10.0 mi North 10.4 mph - N/A   Scattered Clouds
10:15 AM 24.8 °F 14.6 °F 15.8 °F 69% 29.94 in 10.0 mi North 10.4 mph - N/A   Mostly Cloudy
10:35 AM 26.6 °F 17.5 °F 15.8 °F 64% 29.95 in 10.0 mi North 9.2 mph - N/A   Overcast
10:55 AM 26.6 °F 18.2 °F 15.8 °F 64% 29.95 in 10.0 mi North 8.1 mph - N/A   Mostly Cloudy
11:15 AM 24.8 °F 16.1 °F 12.2 °F 59% 29.94 in 10.0 mi NNW 8.1 mph - N/A   Partly Cloudy
11:35 AM 26.6 °F 16.8 °F 12.2 °F 55% 29.94 in 10.0 mi NNW 10.4 mph 16.1 mph N/A   Clear
11:55 AM 28.4 °F 19.7 °F 14.0 °F 55% 29.94 in 10.0 mi North 9.2 mph - N/A   Mostly Cloudy
12:15 PM 26.6 °F 20.0 °F 14.0 °F 59% 29.94 in 10.0 mi NNW 5.8 mph - N/A   Mostly Cloudy
12:35 PM 26.6 °F 17.5 °F 12.2 °F 55% 29.94 in 10.0 mi NNW 9.2 mph - N/A   Mostly Cloudy
12:55 PM 24.8 °F 14.0 °F 12.2 °F 59% 29.94 in 10.0 mi NNW 11.5 mph 17.3 mph N/A   Mostly Cloudy
1:15 PM 24.8 °F 15.3 °F 12.2 °F 59% 29.94 in 10.0 mi North 9.2 mph 16.1 mph N/A   Mostly Cloudy
1:35 PM 23.0 °F 14.7 °F 10.4 °F 59% 29.95 in 10.0 mi NNW 6.9 mph 16.1 mph N/A   Mostly Cloudy
1:55 PM 23.0 °F 12.4 °F 10.4 °F 59% 29.95 in 10.0 mi NNW 10.4 mph - N/A   Overcast
2:15 PM 23.0 °F 11.7 °F 10.4 °F 59% 29.96 in 8.0 mi NNW 11.5 mph 16.1 mph N/A   Mostly Cloudy
2:35 PM 24.8 °F 15.3 °F 8.6 °F 50% 29.96 in 10.0 mi NNW 9.2 mph 18.4 mph N/A   Mostly Cloudy
2:55 PM 26.6 °F 16.8 °F 8.6 °F 47% 29.96 in 10.0 mi North 10.4 mph - N/A   Mostly Cloudy
3:15 PM 26.6 °F 16.8 °F 8.6 °F 47% 29.96 in 10.0 mi North 10.4 mph - N/A   Overcast
3:35 PM 26.6 °F 17.5 °F 8.6 °F 47% 29.97 in 10.0 mi NNW 9.2 mph 16.1 mph N/A   Overcast
3:55 PM 24.8 °F 15.3 °F 8.6 °F 50% 29.99 in 10.0 mi NNW 9.2 mph - N/A   Mostly Cloudy
4:15 PM 21.2 °F 16.4 °F 8.6 °F 58% 29.99 in 10.0 mi NNW 3.5 mph - N/A   Mostly Cloudy
4:35 PM 21.2 °F 16.4 °F 8.6 °F 58% 30.00 in 10.0 mi NNW 3.5 mph - N/A   Mostly Cloudy
4:55 PM 19.4 °F 14.3 °F 6.8 °F 58% 30.01 in 10.0 mi NW 3.5 mph - N/A   Overcast
5:15 PM 19.4 °F 14.3 °F 6.8 °F 58% 30.03 in 10.0 mi NW 3.5 mph - N/A   Mostly Cloudy
5:35 PM 17.6 °F 12.3 °F 6.8 °F 63% 30.04 in 10.0 mi NW 3.5 mph - N/A   Partly Cloudy
5:55 PM 17.6 °F - 6.8 °F 63% 30.04 in 10.0 mi Calm Calm - N/A   Clear
6:15 PM 17.6 °F - 6.8 °F 63% 30.05 in 10.0 mi Calm Calm - N/A   Clear
6:35 PM 15.8 °F - 6.8 °F 68% 30.06 in 10.0 mi Calm Calm - N/A   Clear
6:55 PM 15.8 °F 10.2 °F 6.8 °F 68% 30.07 in 10.0 mi WNW 3.5 mph - N/A   Clear
7:15 PM 15.8 °F 10.2 °F 6.8 °F 68% 30.08 in 10.0 mi West 3.5 mph - N/A   Clear
7:35 PM 15.8 °F 10.2 °F 8.6 °F 73% 30.08 in 10.0 mi WNW 3.5 mph - N/A   Clear
7:55 PM 14.0 °F 8.2 °F 6.8 °F 73% 30.09 in 10.0 mi West 3.5 mph - N/A   Clear
8:15 PM 12.2 °F 6.1 °F 6.8 °F 79% 30.10 in 10.0 mi West 3.5 mph - N/A   Clear
8:35 PM 12.2 °F 6.1 °F 6.8 °F 79% 30.11 in 10.0 mi West 3.5 mph - N/A   Clear
8:55 PM 12.2 °F - 6.8 °F 79% 30.12 in 10.0 mi Calm Calm - N/A   Clear
9:15 PM 12.2 °F 2.9 °F 6.8 °F 79% 30.12 in 10.0 mi NW 5.8 mph - N/A   Clear
9:35 PM 12.2 °F 2.9 °F 5.0 °F 73% 30.12 in 10.0 mi NW 5.8 mph - N/A   Clear
9:55 PM 12.2 °F 1.7 °F 5.0 °F 73% 30.13 in 10.0 mi NW 6.9 mph - N/A   Clear
10:15 PM 12.2 °F 1.7 °F 3.2 °F 67% 30.13 in 10.0 mi NW 6.9 mph - N/A   Clear
10:35 PM 12.2 °F 1.7 °F 3.2 °F 67% 30.13 in 10.0 mi NW 6.9 mph - N/A   Clear
10:55 PM 12.2 °F 1.7 °F 3.2 °F 67% 30.13 in 10.0 mi NW 6.9 mph - N/A   Clear
11:15 PM 12.2 °F 2.9 °F 3.2 °F 67% 30.14 in 10.0 mi NW 5.8 mph - N/A   Clear
11:35 PM 10.4 °F -1.5 °F 3.2 °F 73% 30.14 in 10.0 mi NW 8.1 mph - N/A   Clear
11:55 PM 10.4 °F -0.4 °F 3.2 °F 73% 30.14 in 10.0 mi NW 6.9 mph - N/A   Clear